Location: Derby
(52.9213°N, 1.4761°W)
Time: 15:09:19
(UTC+01:00)

Transit 4A - All Passes

Search period start: 18 May 2025 00:00
Search period end: 28 May 2025 00:00
Orbit: 865 x 977 km, 66.8° (Epoch: 17 May)

Date Brightness Start Highest point End Pass type
(mag) Time Alt. Az. Time Alt. Az. Time Alt. Az.
18 May - 00:10:30 10° NW 00:15:21 23° N 00:20:06 10° NE visible
18 May - 01:58:22 10° NW 02:03:40 28° NNE 02:08:49 10° E visible
18 May - 03:44:54 10° NW 03:51:04 70° NE 03:56:59 10° SE visible
18 May - 05:31:47 10° NW 05:36:57 30° WSW 05:41:59 10° S daylight
18 May - 18:58:13 10° SSE 19:03:23 27° ESE 19:08:30 10° NE daylight
18 May - 20:42:47 10° SW 20:49:11 81° NW 20:55:28 10° NE daylight
18 May - 22:30:49 10° W 22:36:24 31° NNW 22:41:52 10° NE visible
19 May - 00:19:50 10° NW 00:24:38 22° N 00:29:20 10° NE visible
19 May - 02:07:19 10° NW 02:12:50 33° NNE 02:18:12 10° E visible
19 May - 03:53:47 10° NW 03:59:56 90° NE 04:05:52 10° SE visible
19 May - 05:41:02 10° WNW 05:45:30 22° WSW 05:49:52 10° SSW daylight
19 May - 19:06:17 10° S 19:11:59 36° ESE 19:17:38 10° NE daylight
19 May - 20:51:47 10° SW 20:58:06 64° NW 21:04:18 10° NE daylight
19 May - 22:40:16 10° WNW 22:45:35 28° NNW 22:50:49 10° NE visible
20 May - 00:29:05 10° NW 00:33:55 23° N 00:38:39 10° ENE visible
20 May - 02:16:13 10° NW 02:21:57 38° NNE 02:27:31 10° E visible
20 May - 04:02:40 10° NW 04:08:45 70° SW 04:14:36 10° SSE visible
20 May - 05:50:38 10° WNW 05:53:58 15° WSW 05:57:16 10° SW daylight
20 May - 17:35:34 10° E 17:35:44 10° E 17:35:54 10° E daylight
20 May - 19:14:36 10° S 19:20:40 49° ESE 19:26:39 10° NE daylight
20 May - 21:00:54 10° WSW 21:07:05 51° NW 21:13:08 10° NE daylight
20 May - 22:49:43 10° WNW 22:54:49 25° NNW 22:59:49 10° NE visible
21 May - 00:38:14 10° NW 00:43:11 24° NNE 00:48:02 10° ENE visible
21 May - 02:25:05 10° NW 02:31:01 47° NE 02:36:45 10° ESE visible
21 May - 04:11:37 10° NW 04:17:29 52° WSW 04:23:10 10° SSE visible
21 May - 06:01:41 10° W 06:02:23 10° W 06:03:05 10° WSW daylight
21 May - 17:40:46 10° SE 17:44:09 15° ESE 17:47:32 10° ENE daylight
21 May - 19:23:08 10° SSW 19:29:24 65° ESE 19:35:35 10° NE daylight
21 May - 21:10:08 10° WSW 21:16:07 42° NW 21:21:59 10° NE daylight
21 May - 22:59:09 10° WNW 23:04:04 23° N 23:08:53 10° NE visible
22 May - 00:47:18 10° NW 00:52:26 26° NNE 00:57:26 10° ENE visible
22 May - 02:33:57 10° NW 02:40:01 59° NE 02:45:52 10° ESE visible
22 May - 04:20:37 10° NW 04:26:09 38° WSW 04:31:31 10° S daylight
22 May - 17:48:05 10° SSE 17:52:39 21° ESE 17:57:10 10° ENE daylight
22 May - 19:31:51 10° SW 19:38:13 84° SE 19:44:29 10° NE daylight
22 May - 21:19:28 10° W 21:25:13 35° NNW 21:30:51 10° NE daylight
22 May - 23:08:32 10° NW 23:13:21 22° N 23:18:04 10° NE visible
23 May - 00:56:18 10° NW 01:01:38 29° NNE 01:06:50 10° E visible
23 May - 02:42:48 10° NW 02:48:57 75° NE 02:54:52 10° SE visible
23 May - 04:29:45 10° NW 04:34:45 28° WSW 04:39:38 10° SSW daylight
23 May - 17:55:53 10° SSE 18:01:12 29° ESE 18:06:27 10° NE daylight
23 May - 19:40:43 10° SW 19:47:05 77° NW 19:53:20 10° NE daylight
23 May - 21:28:52 10° W 21:34:22 30° NNW 21:39:46 10° NE daylight
23 May - 23:17:51 10° NW 23:22:38 22° N 23:27:19 10° NE visible
24 May - 01:05:14 10° NW 01:10:48 34° NNE 01:16:12 10° E visible
24 May - 02:51:41 10° NW 02:57:48 85° SW 03:03:43 10° SE visible
24 May - 04:39:05 10° WNW 04:43:17 20° WSW 04:47:24 10° SSW daylight
24 May - 18:04:02 10° S 18:09:50 39° ESE 18:15:34 10° NE daylight
24 May - 19:49:44 10° WSW 19:56:01 61° NW 20:02:10 10° NE daylight
24 May - 21:38:18 10° WNW 21:43:34 27° NNW 21:48:43 10° NE daylight
24 May - 23:27:04 10° NW 23:31:55 23° N 23:36:39 10° ENE visible
25 May - 01:14:06 10° NW 01:19:54 40° NE 01:25:29 10° ESE visible
25 May - 03:00:35 10° NW 03:06:35 65° WSW 03:12:24 10° SSE visible
25 May - 04:48:50 10° WNW 04:51:45 14° WSW 04:54:36 10° SW daylight
25 May - 16:31:44 10° ESE 16:33:31 11° E 16:35:16 10° E daylight
25 May - 18:12:24 10° SSW 18:18:31 52° ESE 18:24:33 10° NE daylight
25 May - 19:58:53 10° WSW 20:05:00 48° NW 20:11:01 10° NE daylight
25 May - 21:47:46 10° WNW 21:52:48 24° NNW 21:57:44 10° NE visible
25 May - 23:36:11 10° NW 23:41:10 24° NNE 23:46:02 10° ENE visible
26 May - 01:22:59 10° NW 01:28:56 49° NE 01:34:42 10° ESE visible
26 May - 03:09:32 10° NW 03:15:19 48° WSW 03:20:55 10° S visible
26 May - 16:38:11 10° SE 16:41:56 16° ESE 16:45:39 10° ENE daylight
26 May - 18:20:59 10° SSW 18:27:17 70° SE 18:33:28 10° NE daylight
26 May - 20:08:09 10° WSW 20:14:03 40° NNW 20:19:52 10° NE daylight
26 May - 21:57:12 10° WNW 22:02:04 23° N 22:06:49 10° NE visible
26 May - 23:45:15 10° NW 23:50:24 27° NNE 23:55:26 10° ENE visible
27 May - 01:31:50 10° NW 01:37:55 62° NE 01:43:47 10° SE visible
27 May - 03:18:34 10° NW 03:23:58 35° WSW 03:29:12 10° S visible
27 May - 16:45:40 10° SSE 16:50:27 23° ESE 16:55:10 10° ENE daylight
27 May - 18:29:43 10° SW 18:36:06 89° ESE 18:42:21 10° NE daylight
27 May - 20:17:30 10° W 20:23:10 34° NNW 20:28:44 10° NE daylight
27 May - 22:06:33 10° NW 22:11:20 22° N 22:16:01 10° NE visible
